Regional Weather Roundup
Issued by NWS

Home | Current Version | Previous Version | Text Only | Print | Product List | Glossary Off
Versions: 1 2 3 4 5 6 7 8 9 10 11 12 13 14 15 16 17 18 19 20 21 22 23 24 25 26 27 28 29 30 31 32 33 34 35 36 37 38 39 40 41 42 43 44 45 46 47 48 49 50

000
ASUS43 KLSX 281307
RWRMO

WEATHER SUMMARY FOR MISSOURI
NATIONAL WEATHER SERVICE SPRINGFIELD MO
800 AM CDT WED SEP 28 2016

NOTE: "FAIR" INDICATES FEW OR NO CLOUDS BELOW 12,000 FEET WITH NO
       SIGNIFICANT WEATHER AND/OR OBSTRUCTIONS TO VISIBILITY.
       CURRENT SKY AND/OR WEATHER CONDITIONS ARE NOT AVAILABLE FOR
       CHILLICOTHE AND FARMINGTON.

MOZ001>031-035>038-043-044-053-054-281400-
...NORTHERN AND WESTERN MISSOURI...

CITY           SKY/WX    TMP DP  RH WIND       PRES   REMARKS
KANSAS CTY INT CLEAR     53  45  74 N7        29.99R
KANSAS C DTWN  CLEAR     58  47  66 N3        29.98R
LEE`S SUMMIT   CLEAR     56  47  71 N9        29.98R
ST JOSEPH      CLEAR     52  46  80 N9        30.02R
CHILLICOTHE      N/A     54  46  74 N5        29.99R
KIRKSVILLE     CLEAR     52  44  74 N16       29.96R

$$
MOZ066>068-077>081-088>096-101>105-281400-
...SOUTHWEST MISSOURI...

CITY           SKY/WX    TMP DP  RH WIND       PRES   REMARKS
SPRINGFIELD    CLEAR     63  48  58 W10       29.91R
JOPLIN         CLEAR     60  51  72 W5        29.94R
BRANSON        CLEAR     64  46  52 SW8       29.93S

$$
MOZ032>034-039>042-045>050-055>058-069>072-281400-
...CENTRAL MISSOURI...

CITY           SKY/WX    TMP DP  RH WIND       PRES   REMARKS
COLUMBIA       MOSUNNY   57  49  74 N10       29.90R
JEFFERSON CITY PTSUNNY   58  51  78 NW6       29.89R
ROLLA          SUNNY     59  52  77 W9        29.87R
SEDALIA        CLEAR     57  49  74 N9        29.94R
WHITEMAN AFB   PTCLDY    55  52  88 N9        29.93R
OSAGE BEACH    SUNNY     61  54  77 VRB5      29.91R

$$
MOZ051-052-059>065-281400-
...EAST CENTRAL MISSOURI...

CITY           SKY/WX    TMP DP  RH WIND       PRES   REMARKS
ST LOUIS INTL  CLOUDY    63  52  67 NW14      29.84R
SPIRIT OF STL  CLOUDY    62  52  69 NW8       29.84R
ST CHARLES     CLOUDY    60  51  72 NW8       29.84R

$$
MOZ072>076-082>087-097>100-106>115-281400-
...SOUTH CENTRAL AND SOUTHEAST MISSOURI...

CITY           SKY/WX    TMP DP  RH WIND       PRES   REMARKS
CAPE GIRARDEAU SUNNY     60  52  74 SW6       29.83S
FARMINGTON     SUNNY     63  52  67 W7        29.85
POPLAR BLUFF   SUNNY     57  53  86 SW6       29.86S
WEST PLAINS    SUNNY     58  49  72 W7        29.92S

$$



USA.gov is the U.S. government's official web portal to all federal, state and local government web resources and services.